STARLINK-30199

decayed
NORAD ID: 57299 Int'l Des: 2023-096 Owner: SPXS Country: US Constellation: starlink
LEOCIRCULAR
グループ

STARLINK-30199について

説明を読み込み中...

高度履歴

Altitude vs Time

uPlot chart will show altitude changes over time

軌道要素

1 57299U 23096K 25222.43687554 .15185128 90532-5 32188-2 0 9996
2 57299 42.9667 233.4180 0004681 116.2303 36.2183 16.29813799115515
Epoch: Aug 10, 2025 • Age: 937 hours

現在のステータス

Position data unavailable
打ち上げ日 Jul 10, 2023
運用期間 2.1 years
落下予定日 Aug 10, 2025
タイプ internet

技術仕様

分類 Payload
質量 730.00 kg
乾燥質量 700.00 kg
総質量 730.00 kg
長さ 0.30 m
直径 4.10 m
スパン 29.00 m
形状 Box + pan
製造者 SPXS
バスタイプ Starlink V2M
フェーズステータス Unknown Transfer Status
所有者/国 SPXS/US

大規模コンステレーション

Loading constellations...